Mitchell, SD

10:13 PM CDT on September 16, 2019 (GMT -0500)
Mitchell Municipal

Weather History for KMHE - July, 2019

Change the Weather History Date:

Wednesday, July 10, 2019

  Actual Average Record
Temperature  
Mean Temperature 74 °F 75 °F  
Max Temperature 83 °F 87 °F 108 °F (1976)
Min Temperature 64 °F 63 °F 46 °F (1996)
Degree Days  
Heating Degree Days 0 0  
Month to date heating degree days 0 0  
Since 1 June heating degree days 16 35  
Since 1 July heating degree days 0 0  
Cooling Degree Days 9 10  
Month to date cooling degree days 114 98  
Year to date cooling degree days 325 308  
Since 1 June cooling degree days 306 268  
Growing Degree Days 23 (Base 50)    
Moisture  
Dew Point 58 °F    
Average Humidity 61    
Maximum Humidity 76    
Minimum Humidity 45    
Precipitation  
Precipitation 0.00 in 0.09 in 1.28 in (1971)
Month to date precipitation 2.83 1.15  
Year to date precipitation 17.29 12.01  
Snow  
Snow 0.00 in - 0.00 in ()
Month to date snowfall 0.0  
Since 1 June snowfall 0.0  
Since 1 July snowfall 0.0  
Snow Depth 0.00 in    
Sea Level Pressure  
Sea Level Pressure 30.03 in    
Wind  
Wind Speed 15 mph (WNW)    
Max Wind Speed 23 mph    
Max Gust Speed 39 mph    
Visibility 10 miles    
Events      
T = Trace of Precipitation, MM = Missing Value Source: NWS Daily Summary

Daily Weather History Graph

Daily Weather History Graph

Search for Another Location

Airport or City:

Astronomy

Jul. 10, 2019 Rise Set
Actual Time 5:59 AM CDT 9:14 PM CDT
Civil Twilight 5:24 AM CDT 9:50 PM CDT
Nautical Twilight 4:38 AM CDT 10:35 PM CDT
Astronomical Twilight 3:42 AM CDT 11:31 PM CDT
Moon 3:14 PM CDT (7/10) 1:49 AM CDT (7/10)
Length of Visible Light 16h 25m
Length of Day
15h 15m
Waxing Gibbous, 64% of the Moon is Illuminated
Jul 10
Waxing Gibbous
Jul 16
Full
Jul 24
Last Quarter
Jul 31
New
Aug 7
First Quarter

Hourly Weather History & Observations

Time (CDT) Temp. Heat Index Dew Point Humidity Pressure Visibility Wind Dir Wind Speed Gust Speed Precip Events Conditions
12:53 AM 66.9 °F - 54.0 °F 63% 29.94 in 10.0 mi West 11.5 mph 23.0 mph N/A   Clear
1:53 AM 64.9 °F - 55.0 °F 70% 29.94 in 10.0 mi WSW 11.5 mph - N/A   Clear
2:53 AM 64.9 °F - 55.0 °F 70% 29.95 in 10.0 mi West 13.8 mph 21.9 mph N/A   Clear
3:53 AM 64.0 °F - 55.0 °F 73% 29.95 in 10.0 mi WSW 13.8 mph - N/A   Clear
4:53 AM 64.0 °F - 53.1 °F 67% 29.95 in 10.0 mi West 16.1 mph 26.5 mph N/A   Clear
5:53 AM 64.0 °F - 53.1 °F 67% 29.96 in 10.0 mi WSW 15.0 mph 23.0 mph N/A   Clear
6:53 AM 64.9 °F - 54.0 °F 68% 29.95 in 10.0 mi West 17.3 mph 26.5 mph N/A   Clear
7:53 AM 66.9 °F - 55.0 °F 66% 29.96 in 10.0 mi West 19.6 mph 32.2 mph N/A   Partly Cloudy
8:53 AM 68.0 °F - 55.9 °F 65% 29.99 in 10.0 mi West 19.6 mph 35.7 mph N/A   Overcast
9:53 AM 69.1 °F - 57.9 °F 68% 30.02 in 10.0 mi West 21.9 mph 34.5 mph N/A   Overcast
10:32 AM 71.1 °F - 59.0 °F 66% 30.04 in 10.0 mi West 23.0 mph 39.1 mph N/A   Overcast
10:53 AM 73.0 °F - 60.1 °F 64% 30.03 in 10.0 mi WNW 21.9 mph 36.8 mph N/A   Overcast
11:53 AM 73.9 °F - 60.1 °F 62% 30.05 in 10.0 mi WNW 23.0 mph 36.8 mph N/A   Mostly Cloudy
12:53 PM 78.1 °F - 59.0 °F 52% 30.06 in 10.0 mi NNW 19.6 mph 33.4 mph N/A   Mostly Cloudy
1:53 PM 79.0 °F - 59.0 °F 50% 30.06 in 10.0 mi NNW 18.4 mph 34.5 mph N/A   Overcast
2:53 PM 81.0 °F 81.3 °F 59.0 °F 47% 30.06 in 10.0 mi NW 21.9 mph 32.2 mph N/A   Partly Cloudy
3:53 PM 82.0 °F 82.1 °F 59.0 °F 45% 30.06 in 10.0 mi NNW 18.4 mph 32.2 mph N/A   Scattered Clouds
4:53 PM 82.0 °F 82.1 °F 59.0 °F 45% 30.06 in 10.0 mi NNW 17.3 mph 31.1 mph N/A   Partly Cloudy
5:53 PM 81.0 °F 81.1 °F 57.9 °F 45% 30.07 in 10.0 mi NNW 19.6 mph 27.6 mph N/A   Partly Cloudy
6:53 PM 81.0 °F 81.1 °F 57.9 °F 45% 30.07 in 10.0 mi NNW 16.1 mph 23.0 mph N/A   Clear
7:53 PM 79.0 °F - 59.0 °F 50% 30.08 in 10.0 mi North 9.2 mph 19.6 mph N/A   Clear
8:53 PM 75.0 °F - 61.0 °F 62% 30.09 in 10.0 mi NNW 5.8 mph - N/A   Clear
9:53 PM 69.1 °F - 61.0 °F 75% 30.11 in 10.0 mi NW 4.6 mph - N/A   Clear
10:53 PM 69.1 °F - 61.0 °F 75% 30.12 in 10.0 mi WNW 3.5 mph - N/A   Clear
11:53 PM 68.0 °F - 61.0 °F 78% 30.13 in 10.0 mi WSW 4.6 mph - N/A   Clear